QPF
0.04 0.07 0.07 0.08 0.08 0.05 0.03 0.02 0.02 0.03 0.06 0.06 0.02 0.01 0.01 0.00 0.00 0.01 0.01 0.01 0.00 0.00 0.01 0.01 0.02 0.03 0.03 0.03 0.05 0.05 0.04 0.04 0.04 0.04 0.05 0.05 0.04 0.04 0.05 0.06 0.08 0.09 0.09 0.11
0.05 0.06 0.04 0.04 0.04 0.04 0.03 0.03 0.02 0.03 0.05 0.05 0.02 0.02 0.01 0.00 0.00 0.00 0.01 0.01 0.01 0.00 0.01 0.02 0.02 0.03 0.03 0.03 0.04 0.05 0.05 0.04 0.02 0.03 0.03 0.04 0.04 0.04 0.04 0.03 0.04 0.06 0.07 0.08
0.03 0.03 0.03 0.04 0.04 0.04 0.03 0.03 0.04 0.04 0.04 0.05 0.02 0.02 0.01 0.01 0.00 0.01 0.01 0.01 0.01 0.00 0.00 0.01 0.01 0.01 0.02 0.02 0.03 0.04 0.04 0.04 0.04 0.04 0.05 0.05 0.04 0.05 0.05 0.03 0.03 0.03 0.05 0.06
0.01 0.02 0.03 0.04 0.04 0.04 0.03 0.02 0.03 0.04 0.05 0.05 0.02 0.02 0.02 0.01 0.00 0.01 0.01 0.01 0.00 0.00 0.00 0.01 0.01 0.01 0.01 0.01 0.02 0.03 0.04 0.05 0.05 0.05 0.04 0.04 0.03 0.03 0.02 0.02 0.02 0.03 0.03 0.04
0.01 0.02 0.03 0.03 0.03 0.03 0.02 0.01 0.01 0.03 0.04 0.04 0.02 0.02 0.02 0.01 0.01 0.00 0.00 0.00 0.00 0.00 0.00 0.00 0.00 0.00 0.01 0.01 0.01 0.01 0.03 0.05 0.05 0.05 0.04 0.04 0.04 0.03 0.03 0.03 0.02 0.03 0.03 0.03
0.01 0.01 0.03 0.02 0.02 0.02 0.03 0.02 0.02 0.02 0.03 0.05 0.02 0.02 0.02 0.01 0.02 0.01 0.01 0.00 0.00 0.00 0.00 0.00 0.01 0.01 0.01 0.01 0.01 0.01 0.02 0.03 0.05 0.05 0.05 0.04 0.04 0.04 0.03 0.03 0.03 0.02 0.02 0.02
0.02 0.01 0.03 0.02 0.02 0.03 0.04 0.03 0.06 0.08 0.07 0.04 0.01 0.01 0.02 0.01 0.01 0.01 0.01 0.01 0.01 0.00 0.00 0.00 0.01 0.01 0.01 0.01 0.01 0.01 0.01 0.02 0.03 0.04 0.05 0.04 0.04 0.04 0.03 0.02 0.02 0.02 0.02 0.01
0.02 0.03 0.02 0.03 0.02 0.04 0.05 0.04 0.05 0.06 0.04 0.02 0.01 0.02 0.02 0.01 0.01 0.01 0.01 0.01 0.01 0.00 0.00 0.00 0.00 0.00 0.00 0.01 0.01 0.01 0.01 0.01 0.02 0.03 0.04 0.04 0.03 0.03 0.03 0.02 0.02 0.01 0.02 0.02
0.03 0.03 0.03 0.02 0.02 0.03 0.05 0.04 0.02 0.03 0.02 0.01 0.01 0.01 0.01 0.00 0.00 0.00 0.00 0.00 0.00 0.00 0.00 0.00 0.00 0.01 0.00 0.01 0.01 0.01 0.01 0.01 0.01 0.02 0.03 0.04 0.03 0.02 0.02 0.02 0.02 0.01 0.01 0.02
0.03 0.03 0.02 0.01 0.02 0.04 0.05 0.04 0.04 0.04 0.03 0.02 0.01 0.01 0.02 0.01 0.01 0.01 0.00 0.00 0.00 0.01 0.01 0.00 0.00 0.01 0.01 0.01 0.01 0.01 0.01 0.01 0.01 0.02 0.03 0.04 0.03 0.02 0.01 0.01 0.01 0.02 0.01 0.01
0.03 0.04 0.04 0.03 0.04 0.05 0.04 0.05 0.05 0.04 0.03 0.02 0.02 0.02 0.02 0.03 0.02 0.01 0.01 0.00 0.01 0.01 0.01 0.01 0.01 0.01 0.01 0.01 0.02 0.02 0.02 0.02 0.01 0.02 0.02 0.04 0.03 0.02 0.02 0.01 0.01 0.01 0.02 0.02
0.02 0.03 0.03 0.03 0.04 0.04 0.04 0.04 0.05 0.05 0.03 0.02 0.03 0.03 0.01 0.02 0.02 0.02 0.01 0.00 0.00 0.01 0.01 0.01 0.01 0.01 0.01 0.01 0.01 0.02 0.02 0.01 0.01 0.01 0.02 0.02 0.04 0.03 0.02 0.02 0.01 0.01 0.01 0.01
0.02 0.03 0.04 0.03 0.03 0.04 0.04 0.03 0.04 0.05 0.05 0.04 0.03 0.04 0.02 0.00 0.01 0.02 0.01 0.00 0.00 0.00 0.01 0.01 0.01 0.01 0.01 0.01 0.01 0.01 0.01 0.02 0.02 0.02 0.02 0.02 0.02 0.03 0.03 0.02 0.01 0.01 0.01 0.01
0.01 0.02 0.02 0.02 0.02 0.03 0.03 0.03 0.03 0.04 0.05 0.05 0.03 0.03 0.03 0.01 0.01 0.01 0.01 0.01 0.00 0.01 0.01 0.01 0.01 0.01 0.01 0.01 0.01 0.01 0.01 0.01 0.01 0.01 0.01 0.02 0.01 0.01 0.01 0.01 0.01 0.01 0.01 0.01
0.01 0.01 0.01 0.01 0.02 0.01 0.01 0.02 0.03 0.03 0.03 0.02 0.02 0.02 0.02 0.02 0.02 0.02 0.01 0.01 0.01 0.01 0.01 0.01 0.01 0.01 0.01 0.01 0.01 0.01 0.01 0.01 0.01 0.01 0.01 0.01 0.01 0.01 0.01 0.01 0.01 0.01 0.01 0.01
0.01 0.01 0.01 0.01 0.01 0.01 0.01 0.01 0.02 0.03 0.02 0.01 0.01 0.01 0.01 0.01 0.01 0.01 0.01 0.01 0.01 0.01 0.01 0.01 0.01 0.01 0.02 0.01 0.01 0.01 0.01 0.01 0.01 0.01 0.01 0.01 0.01 0.01 0.00 0.00 0.00 0.00 0.01 0.01
0.01 0.01 0.01 0.01 0.01 0.01 0.01 0.02 0.02 0.02 0.02 0.01 0.01 0.01 0.01 0.01 0.01 0.01 0.01 0.01 0.01 0.01 0.01 0.01 0.00 0.01 0.02 0.02 0.02 0.01 0.01 0.01 0.01 0.01 0.01 0.01 0.01 0.01 0.00 0.00 0.00 0.00 0.00 0.01
0.02 0.02 0.02 0.01 0.01 0.01 0.02 0.02 0.02 0.01 0.02 0.02 0.01 0.02 0.02 0.02 0.01 0.01 0.01 0.01 0.02 0.02 0.02 0.01 0.01 0.01 0.01 0.03 0.02 0.01 0.01 0.02 0.01 0.01 0.01 0.01 0.01 0.01 0.01 0.01 0.01 0.01 0.01 0.01
0.01 0.02 0.02 0.02 0.01 0.01 0.01 0.01 0.01 0.01 0.02 0.02 0.02 0.02 0.02 0.02 0.01 0.02 0.01 0.01 0.01 0.02 0.01 0.01 0.01 0.01 0.01 0.01 0.02 0.02 0.01 0.02 0.02 0.02 0.01 0.01 0.01 0.01 0.01 0.01 0.01 0.01 0.01 0.02
0.01 0.02 0.03 0.02 0.01 0.01 0.02 0.01 0.01 0.01 0.02 0.01 0.01 0.01 0.01 0.02 0.02 0.02 0.01 0.01 0.00 0.01 0.01 0.01 0.01 0.00 0.00 0.01 0.01 0.02 0.02 0.02 0.02 0.02 0.02 0.01 0.01 0.01 0.01 0.01 0.01 0.01 0.01 0.02
0.02 0.03 0.03 0.02 0.02 0.01 0.01 0.01 0.01 0.02 0.02 0.01 0.01 0.01 0.01 0.01 0.02 0.01 0.00 0.00 0.00 0.01 0.01 0.00 0.00 0.00 0.00 0.00 0.01 0.01 0.02 0.02 0.02 0.02 0.02 0.02 0.01 0.01 0.01 0.01 0.01 0.01 0.01 0.01
0.02 0.02 0.02 0.02 0.02 0.01 0.01 0.00 0.01 0.01 0.01 0.00 0.00 0.00 0.01 0.01 0.01 0.00 0.00 0.00 0.00 0.00 0.00 0.00 0.00 0.00 0.00 0.00 0.00 0.01 0.01 0.02 0.02 0.03 0.03 0.02 0.02 0.01 0.01 0.01 0.01 0.01 0.01 0.01
0.02 0.03 0.02 0.02 0.01 0.01 0.01 0.00 0.01 0.00 0.00 0.00 0.00 0.00 0.00 0.00 0.00 0.01 0.00 0.00 0.00 0.00 0.00 0.00 0.00 0.00 0.00 0.01 0.01 0.01 0.01 0.01 0.01 0.02 0.02 0.03 0.03 0.02 0.01 0.01 0.01 0.01 0.02 0.02
0.01 0.02 0.02 0.03 0.02 0.01 0.01 0.00 0.00 0.00 0.00 0.00 0.00 0.00 0.00 0.00 0.00 0.00 0.00 0.00 0.00 0.00 0.00 0.00 0.00 0.00 0.00 0.01 0.01 0.01 0.01 0.01 0.01 0.01 0.01 0.02 0.03 0.02 0.02 0.01 0.02 0.02 0.02 0.02
0.00 0.01 0.02 0.02 0.02 0.01 0.01 0.00 0.00 0.00 0.00 0.00 0.00 0.00 0.00 0.00 0.00 0.00 0.00 0.00 0.00 0.00 0.00 0.00 0.00 0.00 0.00 0.01 0.01 0.01 0.01 0.00 0.00 0.01 0.01 0.02 0.02 0.02 0.02 0.01 0.02 0.02 0.03 0.03
0.00 0.01 0.01 0.01 0.01 0.01 0.01 0.01 0.00 0.00 0.00 0.00 0.00 0.00 0.00 0.00 0.00 0.00 0.00 0.00 0.00 0.00 0.00 0.01 0.01 0.01 0.01 0.01 0.01 0.01 0.01 0.01 0.01 0.01 0.01 0.02 0.02 0.02 0.02 0.02 0.01 0.02 0.02 0.02
MSLP
1013.39 1013.41 1013.45 1013.47 1013.43 1013.31 1013.06 1012.67 1012.10 1011.38 1010.52 1009.57 1008.58 1007.64 1006.80 1006.12 1005.64 1005.36 1005.27 1005.34 1005.50 1005.71 1005.93 1006.14 1006.33 1006.52 1006.77 1007.11 1007.58 1008.21 1009.01 1009.97 1011.03 1012.13 1013.22 1014.24 1015.14 1015.88 1016.47 1016.93 1017.28 1017.57 1017.85 1018.14
1013.35 1013.24 1013.15 1013.08 1013.02 1012.93 1012.77 1012.51 1012.09 1011.50 1010.73 1009.82 1008.80 1007.77 1006.79 1005.95 1005.30 1004.90 1004.72 1004.76 1004.95 1005.24 1005.56 1005.88 1006.16 1006.42 1006.69 1007.01 1007.43 1008.00 1008.73 1009.62 1010.63 1011.71 1012.81 1013.85 1014.79 1015.60 1016.25 1016.76 1017.17 1017.52 1017.83 1018.16
1013.38 1013.09 1012.86 1012.69 1012.58 1012.52 1012.44 1012.30 1012.03 1011.57 1010.91 1010.03 1008.99 1007.86 1006.73 1005.70 1004.87 1004.29 1004.00 1003.97 1004.16 1004.51 1004.93 1005.37 1005.77 1006.13 1006.47 1006.82 1007.23 1007.76 1008.43 1009.25 1010.20 1011.24 1012.32 1013.36 1014.33 1015.18 1015.89 1016.48 1016.97 1017.38 1017.76 1018.13
1013.54 1013.07 1012.66 1012.37 1012.19 1012.12 1012.09 1012.05 1011.89 1011.55 1010.96 1010.12 1009.05 1007.82 1006.54 1005.32 1004.30 1003.54 1003.10 1002.99 1003.16 1003.54 1004.05 1004.61 1005.15 1005.64 1006.08 1006.50 1006.95 1007.47 1008.11 1008.88 1009.77 1010.76 1011.79 1012.82 1013.79 1014.67 1015.43 1016.09 1016.65 1017.14 1017.59 1018.01
1013.89 1013.21 1012.62 1012.17 1011.88 1011.76 1011.73 1011.73 1011.65 1011.37 1010.84 1010.01 1008.91 1007.59 1006.18 1004.80 1003.60 1002.67 1002.10 1001.89 1002.02 1002.42 1003.00 1003.66 1004.33 1004.95 1005.52 1006.04 1006.56 1007.12 1007.76 1008.50 1009.36 1010.30 1011.29 1012.28 1013.24 1014.12 1014.92 1015.62 1016.24 1016.80 1017.31 1017.79
1014.43 1013.55 1012.75 1012.12 1011.69 1011.45 1011.37 1011.35 1011.27 1011.02 1010.50 1009.68 1008.55 1007.17 1005.67 1004.18 1002.85 1001.80 1001.11 1000.82 1000.90 1001.29 1001.91 1002.65 1003.42 1004.16 1004.84 1005.48 1006.08 1006.70 1007.38 1008.13 1008.97 1009.87 1010.83 1011.79 1012.72 1013.59 1014.39 1015.12 1015.78 1016.38 1016.94 1017.46
1015.15 1014.06 1013.05 1012.21 1011.61 1011.22 1011.03 1010.92 1010.79 1010.52 1009.99 1009.16 1008.03 1006.64 1005.11 1003.57 1002.18 1001.06 1000.31 999.95 999.98 1000.35 1000.96 1001.72 1002.54 1003.35 1004.12 1004.84 1005.53 1006.22 1006.95 1007.74 1008.59 1009.49 1010.42 1011.36 1012.26 1013.11 1013.89 1014.62 1015.29 1015.91 1016.50 1017.05
1015.96 1014.68 1013.48 1012.45 1011.65 1011.09 1010.74 1010.51 1010.29 1009.95 1009.40 1008.58 1007.47 1006.13 1004.64 1003.14 1001.78 1000.66 999.89 999.50 999.48 999.79 1000.34 1001.06 1001.86 1002.67 1003.45 1004.21 1004.96 1005.71 1006.49 1007.32 1008.21 1009.13 1010.06 1010.98 1011.86 1012.68 1013.44 1014.14 1014.80 1015.42 1016.02 1016.59
1016.77 1015.34 1013.98 1012.78 1011.80 1011.08 1010.56 1010.19 1009.86 1009.46 1008.89 1008.10 1007.06 1005.82 1004.45 1003.08 1001.82 1000.78 1000.03 999.62 999.55 999.77 1000.21 1000.81 1001.50 1002.22 1002.94 1003.67 1004.41 1005.19 1006.01 1006.89 1007.81 1008.76 1009.71 1010.63 1011.50 1012.30 1013.03 1013.70 1014.33 1014.94 1015.53 1016.11
1017.45 1015.94 1014.49 1013.18 1012.08 1011.22 1010.57 1010.08 1009.65 1009.20 1008.63 1007.90 1006.97 1005.89 1004.71 1003.53 1002.43 1001.52 1000.84 1000.44 1000.29 1000.39 1000.66 1001.07 1001.56 1002.09 1002.67 1003.29 1003.96 1004.70 1005.52 1006.42 1007.38 1008.36 1009.34 1010.27 1011.14 1011.93 1012.64 1013.28 1013.89 1014.47 1015.05 1015.63
1017.93 1016.43 1014.97 1013.63 1012.48 1011.55 1010.82 1010.26 1009.78 1009.31 1008.78 1008.14 1007.37 1006.48 1005.53 1004.57 1003.69 1002.93 1002.34 1001.93 1001.71 1001.64 1001.70 1001.86 1002.07 1002.35 1002.69 1003.12 1003.65 1004.30 1005.07 1005.96 1006.92 1007.92 1008.92 1009.87 1010.75 1011.54 1012.23 1012.86 1013.44 1014.01 1014.57 1015.15
1018.21 1016.79 1015.41 1014.13 1013.01 1012.09 1011.36 1010.78 1010.31 1009.87 1009.40 1008.88 1008.28 1007.61 1006.89 1006.17 1005.49 1004.89 1004.38 1003.97 1003.65 1003.41 1003.22 1003.08 1002.98 1002.95 1003.01 1003.19 1003.52 1004.02 1004.70 1005.52 1006.46 1007.45 1008.45 1009.41 1010.29 1011.09 1011.78 1012.41 1012.98 1013.54 1014.10 1014.68
1018.33 1017.06 1015.83 1014.68 1013.68 1012.85 1012.18 1011.66 1011.23 1010.86 1010.49 1010.10 1009.67 1009.20 1008.70 1008.19 1007.69 1007.21 1006.75 1006.32 1005.89 1005.46 1005.02 1004.58 1004.16 1003.81 1003.57 1003.48 1003.58 1003.90 1004.43 1005.15 1006.02 1006.97 1007.95 1008.90 1009.78 1010.58 1011.28 1011.92 1012.50 1013.06 1013.63 1014.22
1018.41 1017.33 1016.28 1015.33 1014.49 1013.80 1013.26 1012.83 1012.50 1012.22 1011.96 1011.70 1011.41 1011.10 1010.77 1010.41 1010.04 1009.64 1009.20 1008.72 1008.18 1007.56 1006.89 1006.18 1005.47 1004.83 1004.30 1003.95 1003.82 1003.93 1004.30 1004.89 1005.65 1006.53 1007.45 1008.37 1009.24 1010.04 1010.76 1011.41 1012.01 1012.59 1013.17 1013.77
1018.58 1017.69 1016.84 1016.09 1015.44 1014.92 1014.53 1014.23 1014.01 1013.83 1013.67 1013.50 1013.33 1013.12 1012.89 1012.62 1012.31 1011.93 1011.48 1010.92 1010.26 1009.48 1008.61 1007.68 1006.75 1005.87 1005.11 1004.54 1004.21 1004.13 1004.34 1004.78 1005.41 1006.18 1007.03 1007.89 1008.73 1009.52 1010.24 1010.91 1011.55 1012.16 1012.76 1013.37
1018.97 1018.24 1017.57 1016.99 1016.52 1016.16 1015.91 1015.74 1015.62 1015.54 1015.46 1015.36 1015.25 1015.09 1014.89 1014.64 1014.32 1013.91 1013.39 1012.74 1011.97 1011.06 1010.05 1008.96 1007.87 1006.84 1005.92 1005.20 1004.71 1004.49 1004.54 1004.83 1005.33 1005.98 1006.73 1007.52 1008.31 1009.08 1009.81 1010.50 1011.16 1011.81 1012.44 1013.07
1019.66 1019.04 1018.49 1018.04 1017.70 1017.47 1017.34 1017.27 1017.24 1017.23 1017.20 1017.14 1017.03 1016.87 1016.65 1016.35 1015.96 1015.46 1014.85 1014.10 1013.23 1012.22 1011.12 1009.95 1008.79 1007.68 1006.69 1005.89 1005.31 1004.98 1004.91 1005.08 1005.45 1005.97 1006.61 1007.32 1008.05 1008.79 1009.52 1010.23 1010.93 1011.61 1012.28 1012.92
1020.64 1020.07 1019.58 1019.21 1018.94 1018.79 1018.74 1018.74 1018.78 1018.81 1018.80 1018.75 1018.62 1018.41 1018.11 1017.72 1017.22 1016.61 1015.88 1015.03 1014.07 1013.00 1011.85 1010.67 1009.50 1008.39 1007.41 1006.59 1005.98 1005.60 1005.45 1005.52 1005.78 1006.19 1006.73 1007.35 1008.02 1008.73 1009.46 1010.18 1010.91 1011.62 1012.32 1012.98
1021.83 1021.27 1020.79 1020.43 1020.19 1020.08 1020.06 1020.11 1020.18 1020.23 1020.23 1020.16 1019.99 1019.72 1019.32 1018.81 1018.19 1017.45 1016.60 1015.65 1014.62 1013.51 1012.36 1011.20 1010.08 1009.03 1008.10 1007.33 1006.73 1006.34 1006.15 1006.15 1006.33 1006.65 1007.10 1007.64 1008.26 1008.94 1009.65 1010.39 1011.14 1011.88 1012.59 1013.27
1023.09 1022.50 1022.00 1021.63 1021.39 1021.28 1021.27 1021.34 1021.43 1021.50 1021.50 1021.41 1021.19 1020.84 1020.36 1019.73 1018.98 1018.12 1017.16 1016.12 1015.03 1013.91 1012.78 1011.68 1010.63 1009.67 1008.82 1008.12 1007.58 1007.20 1007.00 1006.96 1007.08 1007.34 1007.72 1008.20 1008.77 1009.42 1010.12 1010.86 1011.63 1012.38 1013.12 1013.80
1024.24 1023.63 1023.11 1022.72 1022.47 1022.36 1022.36 1022.45 1022.55 1022.63 1022.64 1022.52 1022.27 1021.86 1021.29 1020.56 1019.70 1018.74 1017.69 1016.59 1015.46 1014.34 1013.24 1012.20 1011.23 1010.37 1009.62 1009.00 1008.51 1008.18 1007.99 1007.94 1008.02 1008.23 1008.56 1009.00 1009.54 1010.16 1010.85 1011.59 1012.35 1013.12 1013.85 1014.53
1025.14 1024.54 1024.03 1023.65 1023.40 1023.31 1023.33 1023.43 1023.55 1023.65 1023.66 1023.53 1023.25 1022.79 1022.16 1021.36 1020.42 1019.38 1018.27 1017.13 1015.99 1014.87 1013.82 1012.84 1011.96 1011.18 1010.52 1009.98 1009.55 1009.26 1009.09 1009.04 1009.11 1009.29 1009.59 1010.01 1010.52 1011.12 1011.80 1012.52 1013.27 1014.02 1014.75 1015.41
1025.71 1025.17 1024.71 1024.37 1024.17 1024.11 1024.17 1024.31 1024.46 1024.57 1024.58 1024.45 1024.14 1023.65 1022.97 1022.12 1021.14 1020.06 1018.92 1017.76 1016.63 1015.54 1014.54 1013.63 1012.82 1012.12 1011.53 1011.05 1010.68 1010.42 1010.27 1010.23 1010.30 1010.48 1010.77 1011.16 1011.66 1012.24 1012.90 1013.60 1014.33 1015.05 1015.74 1016.37
1025.96 1025.52 1025.16 1024.91 1024.80 1024.81 1024.93 1025.10 1025.28 1025.40 1025.41 1025.26 1024.93 1024.41 1023.69 1022.82 1021.81 1020.71 1019.57 1018.44 1017.34 1016.31 1015.36 1014.52 1013.78 1013.15 1012.62 1012.19 1011.87 1011.64 1011.51 1011.49 1011.56 1011.74 1012.03 1012.42 1012.90 1013.47 1014.10 1014.77 1015.45 1016.12 1016.76 1017.34
1025.96 1025.67 1025.45 1025.34 1025.34 1025.45 1025.63 1025.85 1026.04 1026.16 1026.14 1025.96 1025.59 1025.02 1024.28 1023.38 1022.36 1021.28 1020.18 1019.09 1018.05 1017.09 1016.22 1015.45 1014.78 1014.22 1013.74 1013.36 1013.07 1012.87 1012.76 1012.75 1012.84 1013.03 1013.32 1013.71 1014.18 1014.73 1015.32 1015.95 1016.58 1017.19 1017.76 1018.28
1025.85 1025.73 1025.68 1025.73 1025.86 1026.07 1026.33 1026.58 1026.77 1026.85 1026.78 1026.54 1026.10 1025.48 1024.69 1023.77 1022.76 1021.71 1020.65 1019.64 1018.69 1017.81 1017.04 1016.36 1015.77 1015.27 1014.85 1014.51 1014.25 1014.06 1013.98 1013.98 1014.08 1014.28 1014.58 1014.97 1015.44 1015.96 1016.53 1017.11 1017.68 1018.22 1018.71 1019.15
Thickness
5519 5514 5513 5519 5526 5530 5532 5532 5532 5537 5547 5547 5546 5548 5554 5558 5559 5561 5565 5569 5574 5580 5585 5591 5596 5600 5604 5608 5613 5617 5620 5624 5628 5630 5631 5633 5634 5636 5637 5639 5640 5640 5641 5641
5506 5506 5516 5522 5525 5526 5526 5524 5525 5532 5540 5541 5539 5540 5546 5550 5552 5557 5559 5562 5566 5570 5575 5581 5585 5589 5594 5598 5602 5607 5611 5614 5618 5621 5623 5625 5626 5627 5629 5630 5631 5632 5632 5633
5502 5508 5516 5517 5517 5519 5519 5519 5521 5524 5530 5533 5533 5530 5536 5543 5547 5551 5553 5557 5560 5564 5567 5571 5575 5579 5583 5588 5592 5597 5600 5605 5609 5612 5614 5616 5617 5617 5618 5620 5622 5623 5624 5625
5497 5506 5509 5508 5509 5513 5513 5520 5522 5521 5516 5513 5523 5514 5526 5534 5538 5542 5543 5546 5550 5556 5560 5563 5566 5570 5574 5578 5583 5587 5591 5595 5599 5602 5605 5607 5607 5607 5609 5611 5613 5614 5616 5616
5490 5498 5500 5500 5505 5508 5510 5516 5517 5516 5511 5507 5512 5507 5516 5526 5528 5533 5536 5541 5544 5549 5553 5556 5559 5562 5566 5569 5573 5577 5581 5585 5589 5592 5595 5597 5598 5599 5601 5602 5603 5605 5606 5607
5489 5494 5496 5497 5502 5505 5506 5507 5507 5503 5498 5495 5505 5501 5507 5515 5525 5530 5533 5536 5540 5543 5546 5549 5551 5553 5556 5560 5564 5567 5571 5574 5578 5582 5585 5588 5589 5590 5591 5593 5594 5595 5596 5597
5479 5484 5488 5492 5493 5497 5496 5489 5483 5482 5480 5489 5503 5503 5505 5517 5524 5527 5530 5532 5534 5535 5537 5539 5541 5543 5546 5550 5554 5557 5561 5564 5568 5572 5575 5578 5579 5581 5582 5583 5584 5585 5586 5587
5465 5470 5479 5483 5486 5486 5487 5484 5477 5477 5478 5485 5496 5496 5503 5514 5518 5522 5525 5526 5526 5527 5529 5531 5534 5536 5538 5541 5544 5547 5551 5554 5558 5561 5565 5567 5569 5571 5573 5574 5575 5577 5578 5579
5460 5468 5477 5481 5486 5486 5481 5477 5479 5470 5470 5472 5481 5488 5501 5508 5510 5512 5513 5514 5515 5517 5519 5521 5524 5527 5529 5532 5535 5538 5542 5545 5548 5551 5554 5557 5559 5561 5563 5564 5566 5567 5569 5570
5461 5461 5469 5476 5482 5481 5480 5476 5467 5465 5468 5471 5477 5480 5484 5494 5497 5501 5502 5504 5505 5507 5509 5512 5515 5517 5519 5522 5525 5528 5531 5535 5538 5541 5544 5547 5549 5551 5553 5555 5556 5558 5559 5560
5459 5454 5459 5464 5465 5467 5469 5469 5465 5457 5461 5464 5467 5476 5489 5489 5491 5492 5494 5495 5497 5498 5499 5502 5504 5507 5509 5511 5515 5518 5521 5524 5527 5531 5534 5536 5538 5541 5543 5545 5546 5548 5549 5550
5454 5446 5446 5454 5460 5463 5465 5464 5459 5457 5455 5455 5459 5470 5484 5483 5484 5485 5485 5487 5488 5489 5490 5491 5494 5496 5499 5501 5504 5507 5510 5514 5517 5521 5524 5526 5528 5530 5532 5534 5536 5538 5539 5540
5451 5441 5441 5452 5452 5454 5455 5456 5454 5450 5445 5444 5451 5466 5475 5475 5476 5477 5478 5477 5478 5479 5480 5481 5482 5485 5488 5490 5493 5496 5500 5504 5507 5510 5513 5515 5517 5520 5522 5524 5525 5527 5529 5530
5452 5433 5437 5444 5447 5442 5444 5449 5450 5446 5441 5443 5454 5461 5465 5466 5467 5467 5468 5468 5468 5469 5471 5471 5472 5474 5477 5480 5484 5487 5490 5494 5497 5500 5502 5505 5507 5509 5511 5513 5515 5516 5518 5520
5443 5430 5430 5434 5439 5439 5440 5443 5445 5444 5444 5445 5455 5456 5459 5456 5457 5457 5457 5459 5460 5461 5462 5463 5463 5465 5467 5470 5473 5477 5481 5484 5487 5490 5492 5494 5497 5499 5501 5503 5504 5506 5508 5510
5434 5428 5427 5429 5435 5435 5436 5438 5438 5438 5440 5442 5446 5448 5451 5449 5448 5448 5448 5451 5451 5452 5453 5454 5455 5457 5458 5461 5464 5467 5471 5474 5477 5480 5482 5484 5486 5488 5490 5492 5494 5495 5497 5499
5425 5421 5419 5419 5423 5429 5425 5431 5432 5433 5433 5436 5438 5442 5440 5438 5440 5439 5440 5440 5440 5441 5442 5444 5446 5448 5450 5453 5456 5458 5462 5465 5467 5469 5472 5474 5476 5478 5479 5481 5483 5484 5486 5488
5420 5413 5404 5405 5410 5409 5429 5430 5430 5428 5427 5427 5431 5432 5432 5431 5431 5431 5430 5429 5429 5431 5433 5435 5436 5439 5442 5444 5447 5449 5452 5455 5457 5459 5461 5463 5466 5467 5469 5471 5472 5474 5476 5477
5418 5411 5397 5392 5390 5403 5422 5425 5422 5421 5421 5420 5422 5423 5423 5423 5424 5422 5422 5421 5422 5423 5425 5426 5428 5430 5433 5435 5438 5440 5442 5444 5447 5449 5451 5453 5455 5457 5459 5461 5462 5464 5465 5467
5409 5404 5395 5387 5392 5400 5419 5419 5419 5418 5414 5416 5415 5415 5415 5415 5414 5414 5415 5414 5414 5415 5416 5418 5419 5421 5423 5426 5428 5430 5432 5434 5436 5439 5441 5443 5445 5447 5449 5451 5453 5454 5456 5458
5391 5387 5385 5383 5383 5396 5408 5409 5413 5407 5411 5410 5408 5408 5407 5406 5405 5406 5405 5405 5406 5407 5408 5409 5410 5412 5414 5416 5418 5420 5422 5423 5426 5429 5431 5433 5435 5437 5440 5441 5443 5444 5446 5448
5385 5380 5376 5375 5380 5394 5404 5403 5402 5402 5402 5402 5401 5399 5398 5397 5397 5397 5396 5396 5397 5397 5399 5399 5400 5402 5404 5406 5408 5410 5412 5415 5416 5418 5421 5423 5425 5427 5430 5431 5433 5434 5436 5438
5382 5386 5383 5384 5392 5395 5394 5395 5395 5394 5393 5393 5391 5391 5390 5389 5388 5388 5387 5387 5387 5388 5389 5390 5391 5392 5394 5396 5399 5400 5403 5404 5405 5407 5410 5413 5415 5417 5419 5421 5423 5424 5426 5427
5380 5382 5379 5379 5385 5385 5385 5384 5385 5385 5384 5383 5382 5382 5382 5380 5379 5378 5378 5378 5378 5379 5379 5380 5381 5383 5385 5387 5389 5391 5392 5395 5397 5398 5400 5402 5404 5407 5409 5411 5413 5414 5416 5417
5379 5376 5373 5374 5378 5377 5380 5378 5378 5376 5375 5373 5372 5372 5371 5371 5370 5369 5368 5368 5368 5369 5370 5371 5372 5374 5376 5378 5380 5382 5384 5385 5387 5388 5390 5392 5395 5397 5399 5401 5403 5405 5407 5409
5372 5372 5372 5378 5377 5373 5374 5372 5370 5368 5366 5364 5363 5362 5362 5361 5360 5360 5359 5359 5359 5359 5361 5362 5363 5364 5366 5369 5371 5373 5375 5376 5378 5380 5381 5383 5385 5387 5389 5392 5394 5396 5398 5400